Tracking 17155 objects as of 29-July-2015
HD Live streaming from Space Station

GSAT 3 (EDUSAT)

Track GSAT 3 (EDUSAT) now!
GSAT 3 (EDUSAT) is classified as:


NORAD ID: 28417
Int'l Code: 2004-036A
Perigee: 36,056.7 km
Apogee: 36,096.6 km
Inclination: 3.9 °
Period: 1,450.6 minutes
Semi major axis: 42447 km
RCS: 15.8866 m2 (large)
Launch date: September 20, 2004
Source: India (IND)

Interactive education for remote areas of India; 6 C-band and 6 Ku-band transponders; first satellite dedicated to education.
Your satellite tracking list
Your tracking list is empty





NASA's NSSDC Master Catalog

Two Line Element Set (TLE):
1 28417U 04036A   15209.42773525 -.00000175  00000-0  00000+0 0  9990
2 28417 003.8966 066.1515 0004703 085.5248 123.3204 00.99270912 39631

Source of the keplerian elements: AFSPC

N2YO: 228